Location: Argonnex
(45.9500°N, 6.1333°E)
Time: 22:04:40
(UTC+00:00)

CZ-6A DEB - Pass Details

Date: 21 February 2024
Orbit: 822 x 901 km, 98.8° (Epoch: 24 April)

Event Time Altitude Azimuth Distance (km) Brightness Sun altitude
Rises 05:05:40 0° 19° (NNE) 3,463 ? -15.2°
Reaches altitude 10° 05:08:11 10° 25° (NNE) 2,508 ? -14.8°
Maximum altitude 05:13:31 46° 99° (E) 1,126 ? -13.9°
Drops below altitude 10° 05:18:42 10° 172° (S) 2,440 ? -13.0°
Sets 05:21:07 0° 178° (S) 3,361 ? -12.5°
